When you browse on this site, cookies collect data to enhance your experience and personalize the content and advertising you see.
Visit our Privacy Policy to learn more. By continuing to use the site, you agree to this use of cookies and data.
  • In Portugal
  • List of Countries
  • For 7 days
  • Water Temperature
  • Weather Map
  • Weather Widgets
  • user-avatar
    Login

    Hourly Weather Qala i Naw

    Today, 24 October, Thursday

    Time Temperature Precipitation Wind Pressure Humidity
    00:00 +7°C° 0 mm 1 mps 682 mmHg 64%
    01:00 +5°C° 0 mm 0 mps 682 mmHg 67%
    02:00 +5°C° 0 mm 0 mps 682 mmHg 68%
    03:00 +5°C° 0 mm 0 mps 681 mmHg 69%
    04:00 +4°C° 0 mm 0 mps 681 mmHg 70%
    05:00 +5°C° 0 mm 0 mps 682 mmHg 62%
    06:00 +7°C° 0 mm 0 mps 683 mmHg 54%
    07:00 +8°C° 0 mm 0 mps 683 mmHg 46%
    08:00 +12°C° 0 mm 1 mps 684 mmHg 40%
    09:00 +14°C° 0 mm 1 mps 684 mmHg 34%
    10:00 +17°C° 0 mm 2 mps 684 mmHg 28%
    11:00 +18°C° 0 mm 2 mps 684 mmHg 25%
    12:00 +19°C° 0 mm 3 mps 684 mmHg 23%
    13:00 +20°C° 0 mm 4 mps 683 mmHg 20%
    14:00 +19°C° 0 mm 4 mps 683 mmHg 20%
    15:00 +19°C° 0 mm 4 mps 683 mmHg 19%
    16:00 +19°C° 0 mm 4 mps 683 mmHg 18%
    17:00 +16°C° 0 mm 3 mps 683 mmHg 23%
    18:00 +13°C° 0 mm 2 mps 683 mmHg 28%
    19:00 +10°C° 0 mm 1 mps 683 mmHg 32%
    20:00 +9°C° 0 mm 1 mps 683 mmHg 33%
    21:00 +9°C° 0 mm 1 mps 683 mmHg 34%
    22:00 +8°C° 0 mm 1 mps 683 mmHg 35%
    23:00 +8°C° 0 mm 1 mps 683 mmHg 37%

    Tomorrow, 25 October, Friday

    Time Temperature Precipitation Wind Pressure Humidity
    00:00 +6°C° 0 mm 0 mps 683 mmHg 39%
    01:00 +6°C° 0 mm 0 mps 682 mmHg 41%
    02:00 +5°C° 0 mm 0 mps 682 mmHg 43%
    03:00 +5°C° 0 mm 0 mps 682 mmHg 45%
    04:00 +5°C° 0 mm 0 mps 682 mmHg 47%
    05:00 +6°C° 0 mm 0 mps 682 mmHg 42%
    06:00 +7°C° 0 mm 0 mps 683 mmHg 36%
    07:00 +9°C° 0 mm 0 mps 684 mmHg 31%
    08:00 +12°C° 0 mm 1 mps 684 mmHg 27%
    09:00 +14°C° 0 mm 1 mps 684 mmHg 23%
    10:00 +17°C° 0 mm 2 mps 684 mmHg 19%
    11:00 +18°C° 0 mm 2 mps 684 mmHg 18%
    12:00 +19°C° 0 mm 3 mps 684 mmHg 17%
    13:00 +20°C° 0 mm 3 mps 683 mmHg 16%
    14:00 +19°C° 0 mm 3 mps 683 mmHg 16%
    15:00 +19°C° 0 mm 3 mps 683 mmHg 17%
    16:00 +19°C° 0 mm 4 mps 683 mmHg 17%
    17:00 +16°C° 0 mm 3 mps 683 mmHg 22%
    18:00 +13°C° 0 mm 2 mps 683 mmHg 27%
    19:00 +9°C° 0 mm 1 mps 682 mmHg 32%
    20:00 +9°C° 0 mm 1 mps 682 mmHg 33%
    21:00 +9°C° 0 mm 1 mps 682 mmHg 33%
    22:00 +9°C° 0 mm 1 mps 682 mmHg 34%
    23:00 +8°C° 0 mm 1 mps 682 mmHg 37%

    Day after tomorrow, 26 October, Saturday

    Time Temperature Precipitation Wind Pressure Humidity
    00:00 +7°C° 0 mm 0 mps 682 mmHg 41%
    01:00 +6°C° 0 mm 0 mps 682 mmHg 44%
    02:00 +6°C° 0 mm 0 mps 681 mmHg 44%
    03:00 +6°C° 0 mm 0 mps 681 mmHg 43%
    04:00 +6°C° 0 mm 0 mps 681 mmHg 42%
    05:00 +7°C° 0 mm 0 mps 682 mmHg 39%
    06:00 +8°C° 0 mm 0 mps 682 mmHg 36%
    07:00 +9°C° 0 mm 0 mps 683 mmHg 32%
    08:00 +13°C° 0 mm 1 mps 683 mmHg 28%
    09:00 +16°C° 0 mm 1 mps 683 mmHg 23%
    10:00 +19°C° 0 mm 1 mps 684 mmHg 19%
    11:00 +19°C° 0 mm 2 mps 683 mmHg 18%
    12:00 +20°C° 0 mm 3 mps 683 mmHg 17%
    13:00 +21°C° 0 mm 4 mps 683 mmHg 16%
    14:00 +20°C° 0 mm 3 mps 683 mmHg 16%
    15:00 +20°C° 0 mm 3 mps 682 mmHg 17%
    16:00 +20°C° 0 mm 3 mps 682 mmHg 17%
    17:00 +18°C° 0 mm 3 mps 682 mmHg 20%
    18:00 +16°C° 0 mm 2 mps 682 mmHg 22%
    19:00 +14°C° 0 mm 1 mps 682 mmHg 25%
    20:00 +13°C° 0 mm 1 mps 682 mmHg 26%
    21:00 +13°C° 0 mm 1 mps 682 mmHg 27%
    22:00 +13°C° 0 mm 1 mps 682 mmHg 27%
    23:00 +13°C° 0 mm 1 mps 682 mmHg 28%

    , 27 October, Sunday

    Time Temperature Precipitation Wind Pressure Humidity
    00:00 +13°C° 0 mm 1 mps 682 mmHg 28%
    01:00 +12°C° 0 mm 0 mps 682 mmHg 29%
    02:00 +13°C° 0 mm 1 mps 681 mmHg 29%
    03:00 +13°C° 0 mm 1 mps 681 mmHg 29%
    04:00 +13°C° 0 mm 1 mps 681 mmHg 29%
    05:00 +14°C° 0 mm 1 mps 682 mmHg 28%
    06:00 +15°C° 0 mm 1 mps 682 mmHg 27%
    07:00 +16°C° 0 mm 1 mps 683 mmHg 26%
    08:00 +18°C° 0 mm 1 mps 683 mmHg 25%
    09:00 +19°C° 0 mm 1 mps 684 mmHg 25%
    10:00 +20°C° 0 mm 1 mps 684 mmHg 25%
    11:00 +20°C° 0.1 mm 2 mps 684 mmHg 24%
    12:00 +21°C° 0.1 mm 2 mps 684 mmHg 24%
    13:00 +23°C° 0.1 mm 2 mps 683 mmHg 24%
    14:00 +23°C° 0.3 mm 2 mps 683 mmHg 27%
    15:00 +22°C° 0.3 mm 1 mps 683 mmHg 29%
    16:00 +21°C° 0.3 mm 1 mps 683 mmHg 32%
    17:00 +18°C° 0.2 mm 0 mps 683 mmHg 39%
    18:00 +16°C° 0.2 mm 0 mps 683 mmHg 46%
    19:00 +14°C° 0.2 mm 0 mps 682 mmHg 53%
    20:00 +14°C° 0.1 mm 0 mps 683 mmHg 54%
    21:00 +14°C° 0.1 mm 1 mps 683 mmHg 55%
    22:00 +14°C° 0.1 mm 1 mps 683 mmHg 55%
    23:00 +14°C° 0.2 mm 1 mps 683 mmHg 57%

    27 October, Sunday

    Time Temperature Precipitation Wind Pressure Humidity
    00:00 +13°C° 0 mm 1 mps 682 mmHg 28%
    01:00 +12°C° 0 mm 0 mps 682 mmHg 29%
    02:00 +13°C° 0 mm 1 mps 681 mmHg 29%
    03:00 +13°C° 0 mm 1 mps 681 mmHg 29%
    04:00 +13°C° 0 mm 1 mps 681 mmHg 29%
    05:00 +14°C° 0 mm 1 mps 682 mmHg 28%
    06:00 +15°C° 0 mm 1 mps 682 mmHg 27%
    07:00 +16°C° 0 mm 1 mps 683 mmHg 26%
    08:00 +18°C° 0 mm 1 mps 683 mmHg 25%
    09:00 +19°C° 0 mm 1 mps 684 mmHg 25%
    10:00 +20°C° 0 mm 1 mps 684 mmHg 25%
    11:00 +20°C° 0.1 mm 2 mps 684 mmHg 24%
    12:00 +21°C° 0.1 mm 2 mps 684 mmHg 24%
    13:00 +23°C° 0.1 mm 2 mps 683 mmHg 24%
    14:00 +23°C° 0.3 mm 2 mps 683 mmHg 27%
    15:00 +22°C° 0.3 mm 1 mps 683 mmHg 29%
    16:00 +21°C° 0.3 mm 1 mps 683 mmHg 32%
    17:00 +18°C° 0.2 mm 0 mps 683 mmHg 39%
    18:00 +16°C° 0.2 mm 0 mps 683 mmHg 46%
    19:00 +14°C° 0.2 mm 0 mps 682 mmHg 53%
    20:00 +14°C° 0.1 mm 0 mps 683 mmHg 54%
    21:00 +14°C° 0.1 mm 1 mps 683 mmHg 55%
    22:00 +14°C° 0.1 mm 1 mps 683 mmHg 55%
    23:00 +14°C° 0.2 mm 1 mps 683 mmHg 57%

    28 October, Monday

    Time Temperature Precipitation Wind Pressure Humidity
    00:00 +13°C° 0.2 mm 1 mps 683 mmHg 59%
    01:00 +13°C° 0.2 mm 1 mps 682 mmHg 61%
    02:00 +12°C° 0.2 mm 1 mps 682 mmHg 61%
    03:00 +11°C° 0.2 mm 1 mps 682 mmHg 61%
    04:00 +11°C° 0.2 mm 1 mps 682 mmHg 62%
    05:00 +11°C° 0 mm 1 mps 682 mmHg 57%
    06:00 +12°C° 0 mm 1 mps 683 mmHg 52%
    07:00 +12°C° 0 mm 1 mps 683 mmHg 47%
    08:00 +13°C° 0.1 mm 1 mps 683 mmHg 43%
    09:00 +14°C° 0.1 mm 1 mps 684 mmHg 39%
    10:00 +15°C° 0.1 mm 2 mps 684 mmHg 35%
    11:00 +16°C° 0.2 mm 2 mps 684 mmHg 35%
    12:00 +16°C° 0.2 mm 2 mps 683 mmHg 36%
    13:00 +16°C° 0.2 mm 1 mps 683 mmHg 37%
    14:00 +16°C° 1 mm 2 mps 683 mmHg 47%
    15:00 +15°C° 1 mm 2 mps 683 mmHg 56%
    16:00 +14°C° 1 mm 2 mps 683 mmHg 66%
    17:00 +14°C° 0.2 mm 2 mps 683 mmHg 69%
    18:00 +13°C° 0.2 mm 2 mps 683 mmHg 72%
    19:00 +13°C° 0.2 mm 1 mps 683 mmHg 74%
    20:00 +13°C° 0 mm 1 mps 683 mmHg 77%
    21:00 +12°C° 0 mm 1 mps 683 mmHg 79%
    22:00 +11°C° 0 mm 0 mps 683 mmHg 82%
    23:00 +10°C° 0 mm 0 mps 683 mmHg 82%

    29 October, Tuesday

    Time Temperature Precipitation Wind Pressure Humidity
    00:00 +10°C° 0 mm 0 mps 682 mmHg 83%
    01:00 +10°C° 0 mm 0 mps 682 mmHg 84%
    02:00 +10°C° 0 mm 0 mps 682 mmHg 84%
    03:00 +9°C° 0 mm 0 mps 682 mmHg 84%
    04:00 +9°C° 0 mm 0 mps 681 mmHg 84%
    05:00 +10°C° 0 mm 0 mps 682 mmHg 81%
    06:00 +11°C° 0 mm 0 mps 682 mmHg 77%
    07:00 +12°C° 0 mm 0 mps 682 mmHg 73%
    08:00 +15°C° 0 mm 1 mps 683 mmHg 65%
    09:00 +18°C° 0 mm 1 mps 683 mmHg 56%
    10:00 +21°C° 0 mm 1 mps 683 mmHg 47%
    11:00 +22°C° 0.2 mm 1 mps 683 mmHg 43%
    12:00 +24°C° 0.2 mm 2 mps 683 mmHg 38%
    13:00 +25°C° 0.2 mm 2 mps 683 mmHg 34%
    14:00 +25°C° 0.3 mm 2 mps 682 mmHg 35%
    15:00 +25°C° 0.3 mm 3 mps 682 mmHg 36%
    16:00 +24°C° 0.3 mm 3 mps 682 mmHg 37%
    17:00 +23°C° 0.1 mm 2 mps 682 mmHg 43%
    18:00 +20°C° 0.1 mm 2 mps 682 mmHg 49%
    19:00 +19°C° 0.1 mm 1 mps 682 mmHg 55%
    20:00 +19°C° 0.2 mm 1 mps 682 mmHg 55%
    21:00 +18°C° 0.2 mm 1 mps 682 mmHg 56%
    22:00 +18°C° 0.2 mm 1 mps 682 mmHg 57%
    23:00 +17°C° 0.1 mm 2 mps 681 mmHg 56%
    Show more